Terminal Aerodrome Forecast
Issued by NWS La Crosse, WI

Home | Current Version | Previous Version | Text Only | Print | Product List | Glossary On
Versions: 1 2 3 4 5 6 7 8 9 10 11 12 13 14 15 16 17 18 19 20 21 22 23 24 25 26 27 28 29 30 31 32 33 34 35 36
000
FTUS43 KARX 250525
TAFLSE
TAF
KLSE 250525Z 2506/2606 18007KT P6SM SCT250
     FM251400 30006KT P6SM VCSH BKN050
      TEMPO 2516/2519 6SM -SHRA BKN035
     FM252100 32008KT P6SM SCT100=

USA.gov is the U.S. government's official web portal to all federal, state and local government web resources and services.